Wind_Speed
29 30 29 32 33 34 14 2 1 5 26 8 3 4 6 5 5 3 3 3 4 6 7 6 6 7 6 8 10 9 9 4 6 14 4 12 13 11 12 5 5 4 3 16
28 29 31 31 31 28 29 5 5 25 40 3 4 4 3 3 3 4 5 5 5 4 6 3 7 4 7 14 10 10 9 5 3 3 2 4 9 12 15 13 3 8 4 8
27 28 29 31 32 34 16 6 2 14 21 5 8 9 4 3 1 4 4 4 5 4 6 5 3 4 4 18 11 11 15 5 7 8 3 2 6 12 16 16 8 14 17 17
28 28 27 32 32 23 9 3 3 5 5 4 10 5 6 5 2 1 9 4 8 5 4 6 8 7 6 6 13 8 7 6 11 19 19 9 6 10 17 21 19 11 16 19
28 27 28 29 28 21 6 4 4 6 10 14 10 6 6 11 7 3 4 7 7 8 5 7 2 3 6 5 8 9 4 5 5 10 15 18 14 17 16 21 23 24 20 22
28 26 24 26 28 24 8 9 8 12 15 8 9 8 5 7 7 7 10 10 8 9 13 18 21 17 13 6 5 8 2 3 3 6 8 12 11 24 21 14 19 18 17 25
27 25 23 23 23 22 16 8 10 1 5 9 9 11 9 5 5 4 0 9 6 2 5 11 8 16 16 13 12 12 6 3 2 5 4 3 2 4 22 24 12 21 22 11
27 24 24 22 22 21 18 7 5 1 3 9 11 7 5 10 7 2 6 17 17 12 6 3 2 1 3 6 10 14 10 3 3 3 2 5 3 1 4 12 13 17 19 19
25 23 22 21 24 23 19 1 5 9 3 9 10 9 6 3 3 1 4 6 5 8 3 3 3 3 1 4 3 2 5 3 1 4 3 4 3 1 10 7 4 17 20 18
23 22 22 19 22 22 21 5 4 5 3 12 18 6 7 5 3 1 2 2 2 9 3 3 3 2 3 2 2 3 2 2 4 4 3 5 2 3 10 2 5 5 24 22
22 23 23 20 21 18 19 7 7 4 4 9 7 14 11 8 9 3 4 0 3 2 3 3 3 3 4 2 4 4 6 4 3 1 2 3 3 5 3 3 5 4 6 11
21 21 21 20 19 17 19 12 6 5 2 2 10 11 11 12 8 9 7 2 1 4 2 2 2 3 2 3 3 0 2 5 3 6 4 3 3 5 8 9 7 3 8 17
21 20 21 22 18 15 17 18 9 4 0 4 6 9 14 14 14 15 5 5 6 4 4 2 2 3 4 3 4 2 3 3 2 2 2 3 3 2 4 5 2 6 10 21
21 20 22 22 19 15 16 18 7 3 3 2 3 5 9 12 14 16 16 14 8 8 9 3 2 2 3 3 2 3 3 1 2 4 6 7 6 3 2 7 11 19 22 24
22 23 23 21 18 17 20 11 10 8 3 2 1 3 4 6 7 11 15 16 13 6 3 3 3 3 3 1 1 3 5 6 4 4 4 2 1 8 9 15 19 20 25 27
24 24 24 20 16 15 15 1 8 12 9 3 1 1 2 4 6 10 11 8 7 5 3 4 4 3 4 3 3 5 14 9 7 3 3 2 8 13 14 17 18 20 24 27
27 27 25 22 15 14 12 6 9 15 11 2 2 1 1 4 6 5 8 9 6 8 4 4 2 4 3 1 3 5 6 11 11 7 10 7 14 9 16 18 20 23 25 26
30 29 23 16 13 13 16 14 9 8 8 4 1 2 1 7 4 4 5 3 3 5 3 3 1 1 2 4 8 12 8 9 12 17 9 5 14 20 22 22 26 28 28 27
29 22 6 2 5 6 3 5 3 15 5 3 3 3 3 6 2 4 3 2 2 2 2 2 1 2 4 8 8 11 17 13 15 14 9 14 22 27 28 29 31 33 30 26
23 9 4 0 2 7 9 7 7 8 6 5 2 5 3 6 4 1 0 1 1 2 0 2 2 4 20 21 12 6 12 15 18 22 15 20 27 31 32 32 32 31 31 27
16 12 4 17 6 9 4 3 3 5 2 6 7 10 4 8 2 2 2 1 0 1 3 1 2 4 4 14 25 16 11 18 18 13 13 20 27 36 35 33 31 30 28 26
15 14 13 7 2 3 3 3 0 3 5 4 3 5 5 6 3 2 1 2 1 3 3 1 3 4 5 4 6 20 15 20 18 11 10 19 26 33 34 34 33 30 26 24
4 1 3 3 3 2 1 2 1 1 1 7 6 2 6 5 3 3 2 1 3 1 0 4 4 4 6 2 3 16 18 20 18 13 15 20 29 31 32 33 30 27 25 23
4 4 5 1 3 3 3 2 2 4 5 9 13 4 3 4 3 2 3 1 0 2 3 5 3 2 5 4 6 14 21 22 19 17 21 25 31 33 32 30 29 28 27 25
1 2 2 2 5 6 9 10 5 6 6 6 4 5 3 1 3 1 2 1 4 5 5 3 5 7 1 3 8 14 21 22 20 21 25 30 33 34 33 30 27 25 26 25
1 1 3 7 3 5 8 8 9 7 4 8 3 3 3 3 4 3 7 6 6 4 3 6 7 4 2 4 8 14 20 21 21 23 26 32 35 35 34 30 27 25 23 23
2 0 2 2 6 7 8 10 8 10 7 2 2 4 7 2 2 3 4 6 3 4 4 5 5 3 4 7 11 17 20 22 23 26 30 35 35 34 33 32 28 25 22 20
Wind_Direction
337 336 334 335 340 339 24 280 72 161 171 162 183 161 161 138 135 149 132 127 126 174 178 189 217 224 230 180 141 180 203 227 225 223 231 213 205 209 203 204 234 239 203 258
338 340 334 336 340 335 324 251 151 162 157 166 146 150 107 102 118 180 152 159 161 180 174 212 199 212 249 182 170 178 163 221 266 273 186 176 217 224 216 226 286 219 206 267
340 342 335 338 344 330 353 155 146 140 200 279 155 140 141 118 179 135 157 160 120 159 210 223 270 238 267 189 187 185 172 217 215 236 237 173 204 208 216 206 231 237 237 275
346 345 342 345 348 335 177 169 94 119 165 190 164 132 143 180 135 153 180 187 211 180 221 216 227 233 268 164 197 187 199 238 225 239 243 221 209 214 212 214 222 221 254 258
346 347 347 351 356 3 317 18 105 159 154 145 155 190 167 179 192 193 190 224 196 228 228 215 186 235 192 196 195 193 213 268 244 256 233 225 227 224 218 220 227 237 252 273
347 350 349 355 359 9 4 352 334 165 169 152 161 188 182 203 147 210 253 211 233 252 243 236 252 249 255 257 245 212 256 261 278 280 309 233 239 237 224 224 219 222 226 240
346 350 347 351 1 5 354 325 320 145 169 189 180 150 205 190 191 212 297 224 218 206 202 281 260 245 257 258 250 188 195 199 240 282 267 263 288 286 212 211 222 218 236 244
345 351 347 351 355 357 352 329 288 270 135 184 178 171 175 222 235 234 262 269 248 260 283 247 224 188 273 251 227 209 208 142 282 270 279 279 353 345 121 174 241 213 222 235
343 348 345 348 354 355 350 1 234 275 140 209 160 179 159 146 164 230 225 264 256 241 225 222 224 216 192 304 325 1 193 246 297 315 320 352 308 327 88 78 262 201 213 231
342 345 346 349 352 354 352 349 237 310 86 147 184 182 205 187 143 243 276 221 237 209 224 225 187 245 156 260 245 191 190 184 216 267 284 294 315 159 122 64 277 356 195 217
340 344 345 345 350 350 346 343 8 31 39 160 165 165 170 158 184 180 156 297 205 201 230 194 161 206 231 255 225 192 182 174 216 269 263 332 86 97 190 242 298 317 131 162
337 340 339 337 340 348 344 335 16 138 168 185 207 215 213 209 246 206 187 211 142 242 245 209 167 204 164 208 274 133 241 192 202 182 221 247 221 254 290 301 293 234 164 163
333 335 329 333 332 340 339 326 0 148 317 284 253 229 231 244 232 230 203 203 216 236 291 237 196 225 137 186 237 237 239 186 206 15 284 255 277 292 302 313 255 168 160 152
331 325 327 326 326 326 321 318 282 261 202 219 245 231 232 243 244 237 229 238 237 257 283 270 199 221 187 224 229 212 211 128 220 258 274 293 247 208 164 106 117 135 143 150
325 323 320 317 319 310 311 287 225 220 215 315 301 274 243 233 233 229 225 238 253 244 225 239 212 167 149 279 20 254 195 184 177 231 239 193 242 166 156 136 136 143 147 145
326 315 312 309 307 309 330 309 210 211 222 295 288 269 228 218 223 206 213 235 254 229 249 263 231 203 157 171 214 259 217 216 220 243 208 163 141 157 162 145 143 146 147 147
326 321 311 300 286 282 260 235 137 186 196 270 319 316 218 215 207 214 241 231 238 218 212 251 270 192 180 247 229 245 228 227 225 211 155 121 161 167 163 156 149 149 146 146
327 321 309 288 266 264 256 247 266 193 169 196 197 262 258 193 196 214 200 225 239 211 257 277 297 47 59 253 239 241 225 186 185 185 202 223 179 164 160 158 150 148 145 147
338 329 346 53 167 198 219 225 170 189 187 184 171 171 221 180 245 205 190 228 251 232 240 211 200 179 223 230 227 221 209 191 185 179 176 162 167 162 160 159 157 151 150 153
345 8 0 111 179 298 177 152 152 175 209 225 196 177 179 176 201 179 133 47 307 270 297 311 224 251 240 249 243 254 212 199 176 149 141 160 164 166 166 166 164 161 158 159
354 351 347 323 358 182 237 170 176 160 211 207 188 180 155 194 163 179 179 187 111 279 274 278 265 263 241 239 230 225 213 198 188 194 204 185 180 170 168 166 165 164 162 160
306 304 305 316 319 255 210 183 267 172 214 180 160 171 148 154 176 130 157 129 47 252 335 288 258 258 300 323 226 202 196 186 187 192 193 182 179 174 170 167 166 166 163 160
0 353 291 324 278 270 247 150 230 169 167 180 171 142 146 132 158 74 97 134 238 1 297 243 237 261 310 275 206 189 187 187 186 184 180 178 173 172 171 165 166 164 160 158
16 349 335 23 323 0 23 331 305 322 307 209 153 106 140 130 74 129 132 116 30 270 247 238 255 270 313 227 201 191 185 185 188 183 175 171 170 167 168 168 164 163 159 156
35 339 324 329 341 300 316 317 322 330 298 192 125 80 110 82 90 106 114 145 245 223 233 235 275 333 284 193 181 182 183 181 182 177 173 170 167 165 163 164 163 163 158 156
116 218 339 335 340 330 334 346 332 337 297 220 237 135 119 194 139 137 210 153 225 247 220 261 291 311 179 177 173 175 178 178 177 175 173 168 166 165 161 157 159 161 161 159
301 267 294 315 274 279 288 316 305 322 312 239 156 182 206 85 114 243 190 205 215 213 221 256 277 259 199 173 169 171 174 175 175 171 170 168 164 161 158 155 157 160 158 157
Height
1416 1411 1405 1397 1390 1383 1378 1374 1372 1377 1384 1395 1400 1404 1401 1402 1407 1410 1413 1416 1418 1424 1431 1436 1441 1436 1431 1427 1430 1439 1440 1439 1437 1433 1428 1427 1427 1428 1434 1435 1444 1435 1440 1393
1415 1409 1401 1395 1388 1385 1381 1377 1376 1381 1386 1390 1394 1399 1400 1401 1407 1410 1413 1416 1417 1420 1426 1432 1432 1429 1421 1424 1427 1430 1434 1434 1429 1428 1427 1424 1423 1422 1422 1424 1427 1429 1434 1389
1413 1407 1399 1393 1384 1377 1371 1374 1372 1382 1389 1389 1391 1396 1400 1404 1405 1408 1410 1414 1417 1421 1422 1426 1425 1427 1419 1419 1422 1425 1428 1426 1422 1415 1412 1415 1414 1415 1417 1421 1421 1413 1403 1393
1412 1406 1400 1388 1382 1376 1374 1373 1376 1381 1388 1390 1393 1395 1401 1405 1406 1408 1410 1412 1414 1417 1418 1419 1423 1421 1418 1420 1419 1424 1425 1417 1415 1407 1405 1409 1405 1406 1408 1411 1411 1411 1391 1397
1411 1406 1398 1392 1384 1376 1374 1373 1376 1382 1386 1389 1396 1398 1402 1403 1407 1407 1410 1412 1411 1415 1414 1414 1415 1415 1415 1414 1416 1418 1418 1410 1407 1396 1395 1396 1394 1395 1397 1399 1399 1395 1398 1390
1409 1405 1401 1393 1384 1382 1380 1377 1376 1381 1386 1388 1395 1397 1399 1401 1402 1407 1406 1407 1410 1411 1409 1411 1410 1410 1408 1410 1410 1413 1414 1411 1404 1388 1383 1379 1388 1379 1381 1386 1388 1388 1391 1370
1408 1404 1401 1397 1391 1388 1385 1382 1381 1380 1384 1386 1390 1392 1397 1399 1401 1404 1405 1406 1408 1407 1406 1406 1404 1405 1403 1404 1401 1401 1406 1409 1404 1391 1385 1366 1362 1363 1364 1369 1373 1377 1376 1371
1407 1402 1399 1397 1393 1389 1386 1382 1381 1379 1382 1385 1390 1393 1396 1399 1401 1404 1405 1403 1403 1404 1406 1402 1400 1401 1398 1393 1391 1392 1396 1404 1397 1387 1376 1366 1362 1360 1364 1370 1366 1367 1367 1367
1407 1402 1398 1393 1389 1386 1383 1380 1381 1380 1379 1382 1384 1391 1395 1397 1399 1402 1400 1401 1401 1402 1401 1399 1394 1405 1394 1398 1390 1392 1397 1398 1401 1388 1382 1375 1367 1361 1362 1365 1366 1352 1357 1363
1407 1402 1399 1394 1389 1385 1383 1381 1381 1378 1377 1379 1384 1388 1392 1395 1397 1399 1400 1399 1400 1401 1398 1394 1394 1396 1394 1398 1390 1389 1393 1397 1394 1388 1381 1376 1367 1365 1366 1367 1361 1350 1352 1357
1406 1400 1396 1393 1390 1389 1386 1382 1381 1380 1379 1381 1383 1386 1389 1392 1394 1396 1398 1399 1396 1396 1393 1393 1391 1393 1395 1394 1388 1387 1389 1390 1388 1392 1386 1381 1368 1371 1370 1362 1355 1354 1354 1357
1404 1401 1398 1394 1392 1389 1385 1381 1379 1379 1382 1383 1383 1384 1387 1389 1390 1392 1393 1394 1394 1392 1389 1391 1388 1389 1395 1391 1390 1383 1387 1381 1381 1383 1378 1368 1367 1366 1362 1359 1356 1354 1355 1359
1402 1399 1396 1393 1389 1387 1385 1381 1378 1379 1381 1382 1382 1383 1385 1386 1387 1389 1391 1390 1390 1390 1388 1386 1386 1386 1387 1388 1386 1380 1376 1375 1377 1374 1368 1366 1365 1365 1362 1359 1357 1356 1358 1362
1401 1397 1393 1390 1387 1385 1384 1381 1379 1380 1382 1382 1381 1380 1381 1381 1383 1384 1386 1387 1388 1388 1388 1385 1383 1384 1380 1382 1380 1380 1374 1373 1373 1372 1365 1364 1362 1363 1363 1361 1360 1360 1364 1367
1397 1393 1390 1387 1385 1383 1380 1377 1376 1378 1382 1378 1377 1377 1378 1379 1380 1381 1383 1384 1384 1384 1383 1381 1378 1378 1380 1381 1379 1377 1368 1367 1370 1369 1361 1361 1362 1362 1365 1364 1365 1367 1368 1374
1393 1389 1386 1383 1382 1381 1378 1374 1375 1376 1377 1379 1377 1376 1376 1377 1378 1380 1381 1381 1382 1382 1379 1375 1370 1370 1372 1379 1378 1362 1358 1358 1360 1361 1360 1360 1361 1364 1367 1367 1369 1372 1375 1379
1387 1383 1379 1376 1375 1376 1378 1372 1371 1374 1377 1378 1377 1375 1376 1376 1378 1379 1379 1378 1379 1379 1378 1373 1369 1367 1367 1368 1366 1357 1356 1356 1359 1360 1360 1362 1363 1364 1367 1370 1372 1376 1380 1384
1380 1374 1369 1367 1368 1370 1369 1368 1370 1372 1375 1376 1377 1376 1376 1376 1376 1377 1376 1376 1375 1373 1372 1370 1368 1367 1367 1366 1353 1351 1353 1355 1356 1358 1358 1359 1360 1364 1368 1372 1375 1380 1384 1389
1372 1366 1363 1363 1364 1366 1365 1367 1368 1371 1374 1372 1373 1375 1376 1375 1374 1375 1375 1374 1372 1372 1370 1369 1370 1366 1363 1349 1346 1347 1348 1350 1351 1356 1357 1358 1360 1364 1369 1373 1377 1380 1387 1392
1369 1363 1363 1364 1364 1364 1364 1365 1366 1368 1368 1370 1368 1370 1372 1374 1374 1374 1374 1373 1374 1373 1369 1368 1366 1357 1345 1342 1343 1343 1344 1347 1348 1352 1358 1360 1362 1365 1369 1373 1379 1383 1388 1393
1370 1367 1366 1364 1362 1362 1362 1360 1361 1364 1364 1363 1363 1365 1368 1371 1373 1371 1373 1374 1376 1373 1373 1368 1363 1351 1336 1334 1337 1340 1342 1345 1347 1350 1352 1355 1357 1361 1368 1375 1381 1386 1391 1395
1373 1371 1368 1365 1363 1361 1360 1358 1358 1358 1360 1359 1359 1362 1364 1367 1369 1370 1373 1375 1376 1370 1374 1371 1360 1340 1334 1333 1333 1336 1340 1343 1347 1351 1352 1355 1359 1364 1370 1376 1381 1387 1393 1398
1370 1370 1369 1368 1365 1361 1354 1354 1356 1355 1356 1357 1357 1361 1362 1366 1368 1371 1373 1372 1373 1376 1375 1364 1348 1336 1334 1334 1334 1336 1340 1344 1348 1350 1353 1356 1361 1368 1373 1378 1385 1390 1395 1400
1373 1373 1371 1369 1363 1361 1361 1362 1360 1358 1357 1355 1355 1358 1360 1362 1368 1371 1372 1375 1376 1375 1372 1360 1341 1334 1333 1333 1334 1336 1339 1344 1347 1350 1354 1358 1363 1369 1376 1382 1386 1391 1396 1402
1374 1374 1375 1370 1368 1365 1363 1360 1359 1358 1355 1355 1355 1357 1359 1363 1370 1372 1374 1376 1372 1368 1356 1345 1332 1332 1332 1332 1333 1335 1339 1344 1348 1352 1355 1359 1365 1371 1377 1384 1390 1395 1399 1403
1374 1374 1375 1371 1369 1366 1362 1361 1359 1357 1355 1356 1355 1357 1362 1358 1365 1371 1368 1372 1364 1345 1341 1332 1331 1331 1332 1333 1335 1337 1341 1346 1349 1353 1358 1362 1368 1373 1379 1386 1392 1397 1402 1405
1373 1371 1372 1373 1372 1370 1366 1363 1360 1359 1356 1354 1353 1353 1351 1360 1365 1365 1358 1351 1337 1332 1333 1333 1332 1333 1333 1334 1336 1339 1342 1346 1350 1354 1359 1365 1371 1377 1382 1387 1394 1399 1404 1408